Weather History for Shreveport Downtown, LA

Change the Weather History Date:

Saturday, October 6, 2012

  Actual Average (KSHV) Record (KSHV)
Temperature  
Mean Temperature 59 °F 70 °F  
Max Temperature 70 °F 81 °F 97 °F (1954)
Min Temperature 48 °F 58 °F 39 °F (1985)
Degree Days  
Heating Degree Days 6 1  
Month to date heating degree days 6  
Since 1 July heating degree days 12  
Cooling Degree Days 0 6  
Month to date cooling degree days 39  
Year to date cooling degree days 2364  
Growing Degree Days 9 (Base 50)    
Moisture  
Dew Point 50 °F    
Average Humidity 80    
Maximum Humidity 88    
Minimum Humidity 68    
Precipitation  
Precipitation 0.00 in 0.14 in 2.16 in (1984)
Month to date precipitation 0.83  
Year to date precipitation 37.98  
Snow  
Snow 0.00 in - - ()
Month to date snowfall  
Since 1 July snowfall  
Since 1 September snowfall  
Snow Depth -    
Sea Level Pressure  
Sea Level Pressure 30.12 in    
Wind  
Wind Speed 8 mph (NNE)    
Max Wind Speed 12 mph    
Max Gust Speed 20 mph    
Visibility 10 miles    
Events      
T = Trace of Precipitation, MM = Missing Value Source: NWS Daily Summary

Daily Weather History Graph

Daily Weather History Graph

Search for Another Location

Airport:

Trip Planner

Search our weather history database for the weather conditions in past years. The results will help you decide how hot, cold, wet, or windy it might be!

Date:

Astronomy

Oct. 06, 2012 Rise Set
Actual Time 7:12 AM CDT 6:52 PM CDT
Civil Twilight 6:48 AM CDT 7:17 PM CDT
Nautical Twilight 6:19 AM CDT 7:45 PM CDT
Astronomical Twilight 5:51 AM CDT 8:14 PM CDT
Moon 11:23 PM CDT (10/6) 12:52 PM CDT (10/6)
Length of Visible Light 12h 28m
Length of Day
11h 39m
Waning Gibbous, 65% of the Moon is Illuminated
Oct 6
Waning Gibbous
Oct 8
Last Quarter
Oct 15
New
Oct 21
First Quarter
Oct 29
Full

Hourly Weather History & Observations

Time (CDT) Temp. Dew Point Humidity Pressure Visibility Wind Dir Wind Speed Gust Speed Precip Events Conditions
12:53 AM 70.0 °F 64.9 °F 84% 30.03 in 10.0 mi NNW 5.8 mph - N/A   Mostly Cloudy
1:53 AM 68.0 °F 62.1 °F 81% 30.04 in 10.0 mi NNE 8.1 mph - N/A   Overcast
2:16 AM 66.2 °F 62.6 °F 88% 30.05 in 10.0 mi North 9.2 mph - N/A   Overcast
2:53 AM 66.0 °F 62.1 °F 87% 30.05 in 10.0 mi North 8.1 mph - N/A   Overcast
3:08 AM 64.4 °F 60.8 °F 88% 30.05 in 10.0 mi NE 11.5 mph 19.6 mph N/A   Overcast
3:43 AM 62.6 °F 57.2 °F 82% 30.06 in 10.0 mi NE 9.2 mph 17.3 mph N/A   Overcast
3:53 AM 61.0 °F 57.0 °F 87% 30.05 in 10.0 mi NNE 10.4 mph 18.4 mph N/A   Overcast
4:39 AM 60.8 °F 55.4 °F 82% 30.07 in 10.0 mi NNE 8.1 mph - N/A   Overcast
4:53 AM 59.0 °F 54.0 °F 83% 30.08 in 10.0 mi NE 10.4 mph 17.3 mph N/A   Overcast
5:53 AM 57.9 °F 53.1 °F 84% 30.10 in 10.0 mi NNE 10.4 mph - N/A   Overcast
6:53 AM 57.0 °F 51.1 °F 81% 30.11 in 10.0 mi NE 10.4 mph - N/A   Overcast
7:53 AM 55.9 °F 51.1 °F 84% 30.12 in 10.0 mi NNE 9.2 mph - N/A   Overcast
8:02 AM 55.4 °F 51.8 °F 88% 30.14 in 10.0 mi NE 9.2 mph 17.3 mph N/A   Overcast
9:53 AM 53.1 °F 48.9 °F 86% 30.16 in 10.0 mi NNE 8.1 mph - N/A   Overcast
10:53 AM 52.0 °F 46.9 °F 83% 30.16 in 10.0 mi NE 6.9 mph - N/A   Overcast
11:53 AM 53.1 °F 46.9 °F 80% 30.15 in 10.0 mi ENE 8.1 mph - N/A   Overcast
12:53 PM 54.0 °F 48.0 °F 80% 30.15 in 10.0 mi ENE 5.8 mph - N/A   Overcast
1:53 PM 54.0 °F 46.0 °F 75% 30.14 in 10.0 mi North 8.1 mph - N/A   Overcast
2:53 PM 54.0 °F 46.0 °F 75% 30.12 in 10.0 mi NNE 8.1 mph - N/A   Overcast
3:53 PM 53.1 °F 46.0 °F 77% 30.12 in 10.0 mi NE 8.1 mph - N/A   Overcast
4:53 PM 52.0 °F 45.0 °F 77% 30.12 in 10.0 mi NE 8.1 mph - N/A   Overcast
5:53 PM 52.0 °F 44.1 °F 74% 30.13 in 10.0 mi NNE 10.4 mph - N/A   Overcast
6:53 PM 52.0 °F 44.1 °F 74% 30.15 in 10.0 mi Variable 6.9 mph - N/A   Overcast
7:53 PM 51.1 °F 41.0 °F 68% 30.17 in 10.0 mi NE 4.6 mph - N/A   Overcast
8:53 PM 50.0 °F 42.1 °F 74% 30.19 in 10.0 mi NNE 8.1 mph 18.4 mph N/A   Overcast
9:53 PM 48.9 °F 41.0 °F 74% 30.21 in 10.0 mi NE 11.5 mph 17.3 mph N/A   Overcast
10:36 PM 48.2 °F 39.2 °F 71% 30.21 in 10.0 mi NNE 9.2 mph - N/A   Overcast
10:53 PM 48.9 °F 39.9 °F 71% 30.22 in 10.0 mi NNE 6.9 mph - N/A   Overcast
11:53 PM 48.9 °F 41.0 °F 74% 30.23 in 10.0 mi Variable 6.9 mph - N/A   Overcast